Flag for Germany Weather past 2 weeks in Zerbst/Anhalt, Saxony-Anhalt, Germany

Now
77 °F

Passing clouds.


Feels Like: 78 °F
Forecast: 58 / 88 °F
Wind: 2 mph from Northwest

Location: Magdeburg

Current Time: Aug 2, 2015 at 12:36:05 PM

Latest Report: Aug 2, 2015 at 12:00 PM


Visibility: 31 mi

Pressure: 30.12 "Hg

Humidity: 42%

Dew point: 52 °F

Location of Zerbst/AnhaltLocation

Historic Weather in Zerbst/Anhalt — Graph

°F

Zerbst/Anhalt temperature yesterday

Maximum temperature yesterday: 80 °F (at 5:00 PM)
Minimum temperature yesterday: 47 °F (at 3:00 AM)
Average temperature yesterday: 64 °F

Past Weeks' High & Low Weather Summary

 TemperatureHumidityPressure
High86 °F (Jul 22, 4:00 PM)97% (Jul 19, 10:00 AM)30.12 "Hg (Jul 19, 10:00 AM)
Low47 °F (Aug 1, 3:00 AM)30% (Aug 1, 6:00 PM)29.54 "Hg (Jul 25, 2:00 PM)
Average66 °F65%29.86 "Hg
* Reported Jul 18 12:00 Noon — Aug 2 11:00 AM, Zerbst/Anhalt, Weather by CustomWeather, © 2015

Note: Actual official high and low records may vary slightly from our data, if they occured in-between our weather recording intervals... More about our weather records

Advertising

Zerbst/Anhalt weather history for previous 24 hours

 ConditionsComfort  
Time TempWeatherWind HumidityBarometerVisibility
11:00 AM
Sun, Aug 2
74 °FScattered clouds.3 mph46%30.12 "Hg31 mi
10:00 AM72 °FPassing clouds.2 mph52%30.11 "Hg25 mi
9:00 AM67 °FSunny.2 mph61%30.10 "Hg25 mi
8:00 AM62 °FPassing clouds.2 mph68%30.09 "Hg22 mi
7:00 AM56 °FPassing clouds.1 mph80%30.08 "Hg22 mi
6:00 AM53 °FScattered clouds.2 mph87%30.07 "Hg19 mi
4:00 AM56 °FClear.1 mph83%30.04 "Hg16 mi
1:00 AM58 °FClear.1 mph76%30.02 "Hg18 mi
11:00 PM
Sat, Aug 1
63 °FPassing clouds.1 mph69%30.01 "Hg17 mi
10:00 PM64 °FPassing clouds.1 mph65%30.01 "Hg25 mi
9:00 PM72 °FPassing clouds.2 mph45%29.98 "Hg37 mi
8:00 PM76 °FScattered clouds.3 mph38%29.96 "Hg40 mi
7:00 PM78 °FPassing clouds.2 mph34%29.96 "Hg40 mi
6:00 PM80 °FScattered clouds.2 mph30%29.96 "Hg34 mi
5:00 PM80 °FPartly sunny.3 mph33%29.96 "Hg37 mi
4:00 PM78 °FPartly sunny.3 mph35%29.98 "Hg37 mi
3:00 PM77 °FScattered clouds.3 mph37%29.99 "Hg37 mi
2:00 PM74 °FScattered clouds.3 mph38%30.01 "Hg37 mi
1:00 PM71 °FPartly sunny.2 mph41%30.03 "Hg37 mi
12:00 PM71 °FScattered clouds.3 mph41%30.03 "Hg37 mi
Weather by CustomWeather, © 2015

See weather overviewHow to use our weather pages